This demonstration page uses our WeatherBlox Daily Observations layout. Learn more.

36.17497, -115.13722

Hourly Observations for July 18, 2015

Temp ( °F °C ) Dew Point ( °F °C ) Humidity (%) Winds ( mph kmh ) Pressure ( in mb ) Visibility ( mi km ) Precip ( " mm )
12:53 am 00:53 Clear 88 31.1 47 8.3 24 24 S 13 20 29.77 1008 10 16.0934 0 0
1:53 am 01:53 Clear 87 30.6 46 7.8 24 24 S 10 17 29.8 1009 10 16.0934 0 0
2:53 am 02:53 Clear 84 28.9 59 15 43 43 SSE 10 17 29.82 1010 10 16.0934 0 0
3:53 am 03:53 Clear 84 28.9 59 15 43 43 S 9 15 29.82 1010 10 16.0934 0 0
4:53 am 04:53 Clear 84 28.9 58 14.4 41 41 S 9 15 29.83 1010 10 16.0934 0 0
5:53 am 05:53 Sunny 83 28.3 57 13.9 41 41 SSE 12 19 29.84 1011 10 16.0934 0 0
6:53 am 06:53 Sunny 84 28.9 57 13.9 40 40 SSE 9 15 29.86 1011 10 16.0934 0 0
7:53 am 07:53 Sunny 86 30 59 15 40 40 SSE 13 20 29.87 1012 10 16.0934 0 0
8:53 am 08:53 Sunny 89 31.7 55 12.8 31 31 SE 8 13 29.87 1012 10 16.0934 0 0
9:53 am 09:53 Sunny 93 33.9 46 7.8 20 20 SSE 10 17 29.87 1012 10 16.0934 0 0
10:53 am 10:53 Sunny 94 34.4 50 10 22 22 S 14 22 29.88 1012 10 16.0934 0 0
11:53 am 11:53 Sunny 93 33.9 50 10 23 23 S 18 30 29.88 1012 10 16.0934 0 0
12:53 pm 12:53 Sunny 92 33.3 52 11.1 26 26 SSW 16 26 29.88 1012 10 16.0934 0 0
1:53 pm 13:53 Sunny 83 28.3 56 13.3 40 40 SW 30 48 29.94 1014 10 16.0934 0 0
2:53 pm 14:53 Cloudy with Light Rain 82 27.8 56 13.3 41 41 W 22 35 29.95 1014 10 16.0934 0 0.0254
3:53 pm 15:53 Sunny 88 31.1 52 11.1 29 29 W 17 28 29.89 1012 10 16.0934 0 0.0254
4:53 pm 16:53 Sunny 88 31.1 50 10 27 27 SSW 16 26 29.89 1012 10 16.0934 0 0
5:53 pm 17:53 Sunny 85 29.4 55 12.8 36 36 SSE 20 31 29.89 1012 10 16.0934 0 0
6:53 pm 18:53 Sunny 84 28.9 56 13.3 38 38 SSE 21 33 29.91 1013 10 16.0934 0 0
7:53 pm 19:53 Sunny 81 27.2 58 14.4 45 45 ESE 18 30 29.93 1014 10 16.0934 0 0
8:53 pm 20:53 Clear 81 27.2 58 14.4 45 45 ESE 20 31 29.95 1014 10 16.0934 0 0
9:53 pm 21:53 Clear 79 26.1 58 14.4 49 49 SE 18 30 29.97 1015 10 16.0934 0 0
10:53 pm 22:53 Clear 79 26.1 59 15 50 50 ESE 12 19 29.98 1015 10 16.0934 0 0
11:53 pm 23:53 Clear 77 25 60 15.6 56 56 ESE 9 15 30.01 1016 10 16.0934 0 0

Powered by AerisWeather